When you browse on this site, cookies collect data to enhance your experience and personalize the content and advertising you see.
Visit our Privacy Policy to learn more. By continuing to use the site, you agree to this use of cookies and data.
  • In Lithuania
  • List of Countries
  • For 7 days
  • Water Temperature
  • Satellite Maps
  • Weather Map
  • Weather Widgets
  • user-avatar
    Login

    Hourly Weather Kipungo

    Today, 17 February, Sunday

    Time Temperature Precipitation Wind Pressure Humidity
    00:00 +22°C° 0 mm 1 mps 654 mmHg 56%
    01:00 +20°C° 0 mm 1 mps 654 mmHg 59%
    02:00 +20°C° 0 mm 1 mps 654 mmHg 59%
    03:00 +19°C° 0 mm 1 mps 654 mmHg 60%
    04:00 +19°C° 0 mm 1 mps 653 mmHg 60%
    05:00 +20°C° 0 mm 1 mps 654 mmHg 61%
    06:00 +20°C° 0 mm 1 mps 654 mmHg 62%
    07:00 +21°C° 0 mm 1 mps 655 mmHg 58%
    08:00 +24°C° 0 mm 1 mps 656 mmHg 49%
    09:00 +27°C° 0 mm 1 mps 656 mmHg 40%
    10:00 +30°C° 0 mm 2 mps 657 mmHg 31%
    11:00 +31°C° 0 mm 2 mps 657 mmHg 28%
    12:00 +34°C° 0 mm 2 mps 657 mmHg 26%
    13:00 +35°C° 0 mm 1 mps 656 mmHg 28%
    14:00 +34°C° 0 mm 1 mps 655 mmHg 32%
    15:00 +32°C° 0 mm 1 mps 654 mmHg 37%
    16:00 +29°C° 0 mm 0 mps 653 mmHg 42%
    17:00 +29°C° 0 mm 1 mps 653 mmHg 43%
    18:00 +28°C° 0 mm 1 mps 653 mmHg 45%
    19:00 +27°C° 0 mm 2 mps 653 mmHg 46%
    20:00 +26°C° 0 mm 2 mps 654 mmHg 49%
    21:00 +25°C° 0 mm 2 mps 654 mmHg 52%
    22:00 +23°C° 0 mm 2 mps 654 mmHg 55%
    23:00 +23°C° 0 mm 2 mps 654 mmHg 56%

    Tomorrow, 18 February, Monday

    Time Temperature Precipitation Wind Pressure Humidity
    00:00 +21°C° 0 mm 2 mps 654 mmHg 58%
    01:00 +20°C° 0 mm 2 mps 654 mmHg 59%
    02:00 +20°C° 0 mm 1 mps 653 mmHg 60%
    03:00 +20°C° 0 mm 1 mps 653 mmHg 60%
    04:00 +20°C° 0 mm 1 mps 653 mmHg 61%
    05:00 +20°C° 0 mm 1 mps 653 mmHg 61%
    06:00 +20°C° 0 mm 1 mps 653 mmHg 62%
    07:00 +20°C° 0 mm 1 mps 654 mmHg 62%
    08:00 +24°C° 0 mm 1 mps 654 mmHg 55%
    09:00 +27°C° 0 mm 1 mps 655 mmHg 47%
    10:00 +30°C° 0 mm 2 mps 656 mmHg 40%
    11:00 +32°C° 0 mm 2 mps 655 mmHg 36%
    12:00 +34°C° 0 mm 2 mps 655 mmHg 32%
    13:00 +36°C° 0 mm 3 mps 655 mmHg 27%
    14:00 +35°C° 0 mm 2 mps 654 mmHg 29%
    15:00 +35°C° 0 mm 2 mps 653 mmHg 31%
    16:00 +33°C° 0 mm 1 mps 653 mmHg 33%
    17:00 +31°C° 0 mm 1 mps 653 mmHg 36%
    18:00 +30°C° 0 mm 1 mps 652 mmHg 40%
    19:00 +28°C° 0 mm 1 mps 652 mmHg 44%
    20:00 +27°C° 0 mm 1 mps 653 mmHg 49%
    21:00 +26°C° 0 mm 1 mps 653 mmHg 54%
    22:00 +25°C° 0 mm 2 mps 653 mmHg 59%
    23:00 +23°C° 0 mm 2 mps 653 mmHg 65%

    Day after tomorrow, 19 February, Tuesday

    Time Temperature Precipitation Wind Pressure Humidity
    00:00 +21°C° 0 mm 2 mps 652 mmHg 71%
    01:00 +20°C° 0 mm 2 mps 652 mmHg 78%
    02:00 +20°C° 0 mm 2 mps 652 mmHg 78%
    03:00 +21°C° 0 mm 1 mps 652 mmHg 79%
    04:00 +20°C° 0 mm 1 mps 651 mmHg 79%
    05:00 +21°C° 0 mm 1 mps 652 mmHg 77%
    06:00 +21°C° 0 mm 1 mps 652 mmHg 75%
    07:00 +22°C° 0 mm 1 mps 653 mmHg 73%
    08:00 +25°C° 0 mm 1 mps 654 mmHg 62%
    09:00 +27°C° 0 mm 2 mps 654 mmHg 51%
    10:00 +30°C° 0 mm 2 mps 655 mmHg 40%
    11:00 +32°C° 0 mm 2 mps 655 mmHg 35%
    12:00 +34°C° 0 mm 2 mps 655 mmHg 31%
    13:00 +36°C° 0 mm 2 mps 654 mmHg 26%
    14:00 +34°C° 0 mm 2 mps 653 mmHg 32%
    15:00 +32°C° 0 mm 1 mps 652 mmHg 37%
    16:00 +30°C° 0 mm 1 mps 651 mmHg 42%
    17:00 +29°C° 0 mm 1 mps 651 mmHg 46%
    18:00 +27°C° 0 mm 1 mps 652 mmHg 51%
    19:00 +26°C° 0 mm 1 mps 652 mmHg 55%
    20:00 +24°C° 0 mm 1 mps 652 mmHg 60%
    21:00 +23°C° 0 mm 2 mps 652 mmHg 65%
    22:00 +21°C° 0 mm 2 mps 652 mmHg 70%
    23:00 +20°C° 0 mm 2 mps 652 mmHg 74%

    20 February, Wednesday

    Time Temperature Precipitation Wind Pressure Humidity
    00:00 +21°C° 0 mm 1 mps 652 mmHg 78%
    01:00 +20°C° 0 mm 1 mps 651 mmHg 81%
    02:00 +21°C° 0 mm 1 mps 651 mmHg 80%
    03:00 +21°C° 0 mm 1 mps 651 mmHg 78%
    04:00 +21°C° 0 mm 1 mps 651 mmHg 76%
    05:00 +21°C° 0 mm 1 mps 652 mmHg 75%
    06:00 +22°C° 0 mm 1 mps 652 mmHg 73%
    07:00 +20°C° 0 mm 0 mps 653 mmHg 72%
    08:00 +25°C° 0 mm 1 mps 653 mmHg 63%
    09:00 +27°C° 0 mm 1 mps 654 mmHg 53%
    10:00 +30°C° 0 mm 2 mps 655 mmHg 44%
    11:00 +31°C° 0 mm 2 mps 655 mmHg 41%
    12:00 +33°C° 0 mm 3 mps 654 mmHg 37%
    13:00 +34°C° 0 mm 3 mps 654 mmHg 34%
    14:00 +33°C° 0 mm 3 mps 653 mmHg 34%
    15:00 +32°C° 0 mm 2 mps 652 mmHg 35%
    16:00 +32°C° 0 mm 2 mps 652 mmHg 35%
    17:00 +30°C° 0 mm 1 mps 652 mmHg 39%
    18:00 +28°C° 0 mm 1 mps 652 mmHg 43%
    19:00 +26°C° 0 mm 1 mps 652 mmHg 47%
    20:00 +26°C° 0 mm 1 mps 653 mmHg 49%
    21:00 +25°C° 0 mm 1 mps 653 mmHg 51%
    22:00 +24°C° 0 mm 1 mps 654 mmHg 52%
    23:00 +23°C° 0 mm 1 mps 654 mmHg 59%

    21 February, Thursday

    Time Temperature Precipitation Wind Pressure Humidity
    00:00 +23°C° 0 mm 1 mps 653 mmHg 65%
    01:00 +22°C° 0 mm 1 mps 653 mmHg 71%
    02:00 +21°C° 0 mm 1 mps 653 mmHg 76%
    03:00 +20°C° 0 mm 1 mps 652 mmHg 80%
    04:00 +20°C° 0 mm 1 mps 652 mmHg 85%
    05:00 +20°C° 0 mm 1 mps 653 mmHg 84%
    06:00 +21°C° 0 mm 1 mps 653 mmHg 83%
    07:00 +21°C° 0 mm 1 mps 654 mmHg 83%
    08:00 +23°C° 0 mm 0 mps 655 mmHg 70%
    09:00 +27°C° 0 mm 0 mps 656 mmHg 57%
    10:00 +31°C° 0 mm 0 mps 657 mmHg 44%
    11:00 +33°C° 0 mm 1 mps 656 mmHg 38%
    12:00 +34°C° 0 mm 1 mps 656 mmHg 32%
    13:00 +35°C° 0 mm 2 mps 655 mmHg 27%
    14:00 +35°C° 0 mm 2 mps 654 mmHg 28%
    15:00 +34°C° 0 mm 2 mps 654 mmHg 30%
    16:00 +32°C° 0 mm 2 mps 653 mmHg 32%
    17:00 +30°C° 0 mm 2 mps 653 mmHg 38%
    18:00 +28°C° 0 mm 2 mps 653 mmHg 44%
    19:00 +26°C° 0 mm 1 mps 653 mmHg 51%
    20:00 +25°C° 0 mm 2 mps 654 mmHg 54%
    21:00 +25°C° 0 mm 2 mps 655 mmHg 57%
    22:00 +25°C° 0 mm 2 mps 655 mmHg 60%
    23:00 +24°C° 0 mm 2 mps 655 mmHg 65%

    22 February, Friday

    Time Temperature Precipitation Wind Pressure Humidity
    00:00 +23°C° 0 mm 1 mps 655 mmHg 71%
    01:00 +22°C° 0 mm 1 mps 654 mmHg 76%
    02:00 +21°C° 0 mm 1 mps 654 mmHg 81%
    03:00 +21°C° 0 mm 1 mps 653 mmHg 85%
    04:00 +20°C° 0 mm 1 mps 653 mmHg 89%
    05:00 +20°C° 0 mm 1 mps 653 mmHg 87%
    06:00 +21°C° 0 mm 1 mps 654 mmHg 84%
    07:00 +21°C° 0 mm 1 mps 654 mmHg 82%
    08:00 +24°C° 0 mm 1 mps 655 mmHg 71%
    09:00 +27°C° 0 mm 2 mps 656 mmHg 59%
    10:00 +30°C° 0 mm 2 mps 656 mmHg 48%
    11:00 +31°C° 0 mm 2 mps 656 mmHg 43%
    12:00 +32°C° 0 mm 2 mps 655 mmHg 38%
    13:00 +34°C° 0 mm 3 mps 655 mmHg 32%
    14:00 +34°C° 0 mm 2 mps 654 mmHg 34%
    15:00 +32°C° 0 mm 2 mps 654 mmHg 35%
    16:00 +32°C° 0 mm 2 mps 653 mmHg 37%
    17:00 +30°C° 0 mm 2 mps 653 mmHg 42%
    18:00 +28°C° 0 mm 1 mps 653 mmHg 47%
    19:00 +26°C° 0 mm 1 mps 653 mmHg 53%
    20:00 +25°C° 0 mm 1 mps 653 mmHg 58%
    21:00 +24°C° 0 mm 1 mps 653 mmHg 62%
    22:00 +23°C° 0 mm 2 mps 654 mmHg 67%
    23:00 +21°C° 0 mm 2 mps 653 mmHg 72%
    Show more